Saint Johns, AZ

9:50 PM MST on February 12, 2016 (GMT -0700)
Saint Johns Industrial

Weather History for KSJN - January, 2012

Change the Weather History Date:

Saturday, January 7, 2012

  Actual Average (KSOW) Record (KSOW)
Temperature  
Mean Temperature 38 °F -  
Max Temperature 57 °F 45 °F 62 °F (2006)
Min Temperature 19 °F 26 °F -22 °F (1971)
Degree Days  
Heating Degree Days 27    
Moisture  
Dew Point 17 °F    
Average Humidity 47    
Maximum Humidity 85    
Minimum Humidity 19    
Precipitation  
Precipitation 0.00 in - - ()
Sea Level Pressure  
Sea Level Pressure 29.94 in    
Wind  
Wind Speed 7 mph (WSW)    
Max Wind Speed 24 mph    
Max Gust Speed 37 mph    
Visibility 10 miles    
Events      
Averages and records for this station are not official NWS values.
T = Trace of Precipitation, MM = Missing Value Source: NWS Daily Summary

Daily Weather History Graph

Daily Weather History Graph

Search for Another Location

Airport or City:

Trip Planner

Search our weather history database for the weather conditions in past years. The results will help you decide how hot, cold, wet, or windy it might be!

Date:

Astronomy

Jan. 07, 2012 Rise Set
Actual Time 7:24 AM MST 5:22 PM MST
Civil Twilight 6:57 AM MST 5:50 PM MST
Nautical Twilight 6:26 AM MST 6:21 PM MST
Astronomical Twilight 5:55 AM MST 6:52 PM MST
Moon 4:10 PM MST (1/7) 5:58 AM MST (1/7)
Length of Visible Light 10h 53m
Length of Day
9h 57m
Waxing Gibbous, 98% of the Moon is Illuminated
Jan 7
Waxing Gibbous
Jan 9
Full
Jan 16
Last Quarter
Jan 23
New
Jan 30
First Quarter

Hourly Weather History & Observations

Time (MST) Temp. Windchill Dew Point Humidity Pressure Visibility Wind Dir Wind Speed Gust Speed Precip Events Conditions
12:54 AM 30.9 °F 25.2 °F 19.0 °F 61% 29.99 in 10.0 mi South 5.8 mph - N/A   Clear
1:54 AM 26.1 °F - 18.0 °F 71% 30.00 in 10.0 mi Calm Calm - N/A   Clear
2:54 AM 23.0 °F - 16.0 °F 74% 30.00 in 10.0 mi Calm Calm - N/A   Clear
3:54 AM 24.1 °F 19.7 °F 17.1 °F 75% 29.99 in 10.0 mi WSW 3.5 mph - N/A   Clear
4:54 AM 21.9 °F - 16.0 °F 78% 29.99 in 10.0 mi Calm Calm - N/A   Clear
5:54 AM 19.0 °F - 15.1 °F 85% 30.04 in 10.0 mi Calm Calm - N/A   Clear
6:54 AM 21.0 °F - 16.0 °F 81% 30.03 in 10.0 mi Calm Calm - N/A   Clear
7:54 AM 21.0 °F 16.2 °F 16.0 °F 81% 30.04 in 10.0 mi NW 3.5 mph - N/A   Clear
8:54 AM 28.9 °F 25.2 °F 19.0 °F 67% 30.02 in 10.0 mi NW 3.5 mph - N/A   Clear
9:54 AM 37.9 °F - 21.0 °F 51% 30.00 in 10.0 mi Calm Calm - N/A   Clear
10:54 AM 50.0 °F - 19.9 °F 31% 29.95 in 10.0 mi Calm Calm - N/A   Clear
11:17 AM 55.4 °F - 17.6 °F 23% 30.00 in 10.0 mi SW 19.6 mph 27.6 mph N/A   Clear
11:54 AM 57.0 °F - 17.1 °F 21% 29.90 in 10.0 mi WSW 19.6 mph 31.1 mph N/A   Clear
12:54 PM 57.9 °F - 16.0 °F 19% 29.86 in 10.0 mi SW 24.2 mph 36.8 mph N/A   Clear
1:54 PM 57.0 °F - 17.1 °F 21% 29.85 in 10.0 mi WSW 21.9 mph 32.2 mph N/A   Clear
2:54 PM 57.0 °F - 15.1 °F 19% 29.86 in 10.0 mi WSW 19.6 mph 32.2 mph N/A   Clear
3:54 PM 55.0 °F - 17.1 °F 23% 29.86 in 10.0 mi WSW 23.0 mph 33.4 mph N/A   Clear
4:54 PM 52.0 °F - 15.1 °F 23% 29.89 in 10.0 mi WSW 16.1 mph 23.0 mph N/A   Clear
5:54 PM 46.9 °F - 17.1 °F 30% 29.93 in 10.0 mi SW 12.7 mph 21.9 mph N/A   Clear
6:54 PM 45.0 °F 38.9 °F 18.0 °F 34% 29.93 in 10.0 mi SW 12.7 mph - N/A   Clear
7:54 PM 42.1 °F 35.7 °F 18.0 °F 38% 29.94 in 10.0 mi SW 11.5 mph - N/A   Clear
8:54 PM 37.9 °F 33.5 °F 19.0 °F 47% 29.94 in 10.0 mi NNW 5.8 mph - N/A   Partly Cloudy
9:54 PM 41.0 °F 36.4 °F 17.1 °F 38% 29.91 in 10.0 mi WSW 6.9 mph - N/A   Overcast
10:54 PM 39.9 °F 35.1 °F 19.0 °F 43% 29.86 in 10.0 mi WSW 6.9 mph - N/A   Overcast
11:54 PM 37.0 °F 31.6 °F 19.9 °F 50% 29.83 in 10.0 mi SW 6.9 mph - N/A   Mostly Cloudy